Volver al catálogo

STARLINK-35883

ActivoComunicacionesVLEO
NORAD 66892·PAYLOAD·🇺🇸 United States

Lanzado Dec 4, 2025 desde Vandenberg Space Force Base

Loading…

Próximos Pases (próximas 24 horas)

TLE

ActualizadoSource: CelesTrak SupGP

Época: Sep 14, 2026, 23:06 UTC

1 66892C 25283Q   26257.96298611  .00007524  00000+0  22225-3 0  2575
2 66892  53.1570 223.2621 0001429  97.5342  38.2805 15.34394001    15

Sigue STARLINK-35883 en tiempo real con AllMySat

Download on the App Store